CZ-4B R/B (49964 NORAD) Tracking and Keplerian Element Data
This shows tracking and keplerian element data for the satellite.
Feedback or suggestion? Click here.
Element | Value |
Catalog | 49964 |
Name | CZ-4B R/B |
Epoch Orbit | 465 |
Epoch Day | 8.7686005 |
Epoch Year | 2022 |
RAAN | 27.1835 |
Inclination | 97.2678 |
Eccentricity | 0.0116574 |
Argument of Perigee | 254.2313 |
Mean Anonmoly | 104.6068 |
Mean Motion | 15.67630929 |
Decay Rate | 0.00044707 |
L1 | 1 49964U 21122D 22008.76860050 .00044707 27250-5 28417-3 0 9992 |
L2 | 2 49964 97.2678 27.1835 0116574 254.2313 104.6068 15.67630929 4651 |
Live tracking and technical data element details for CZ-4B R/B (NORAD 49964). CZ-4B R/B can be tracked NOW for your location showing map with azimuth and elevation plus other details from your city location.
Track the satellite on the map from your city or location and see movement details for azimuth, elevation, latitude, longitude, range, height, and movement on the map or in text.
IsCatalogInMostPopularTable: catalog: 49964, numindb: 24
Update: records affected: 1
GetName: 49964 CZ-4B R/B
Hit Count: updated at: Mon, 23 May 2022 21:20:13 GMT